Flag for Bulgaria Weather past 2 weeks in Plovdiv, Bulgaria

Now
54 °F

Cool.


Feels Like: 52 °F
Forecast: 45 / 62 °F
Wind: 6 mph from Northwest

Location: Plovdiv Airport

Current Time: Mar 30, 2015 at 10:43:46 AM

Latest Report: Mar 30, 2015 at 10:00 AM


Visibility: N/A

Pressure: 29.77 "Hg

Humidity: 51%

Dew point: 36 °F

Location of PlovdivLocation

Historic Weather in Plovdiv — Graph

°F

Plovdiv temperature yesterday

Maximum temperature yesterday: 59 °F (at 3:30 PM)
Minimum temperature yesterday: 48 °F (at 12:00 AM)
Average temperature yesterday: 52 °F

Past Weeks' High & Low Weather Summary

 TemperatureHumidityPressure
High63 °F (Mar 28, 3:30 PM)100% (Mar 19, 8:30 PM)30.57 "Hg (Mar 19, 8:30 PM)
Low28 °F (Mar 19, 2:00 AM)17% (Mar 21, 5:00 PM)29.59 "Hg (Mar 27, 10:00 PM)
Average46 °F70%30.09 "Hg
* Reported Mar 15 8:00 AM — Mar 30 9:30 AM, Plovdiv, Weather by CustomWeather, © 2015

Note: Actual official high and low records may vary slightly from our data, if they occured in-between our weather recording intervals... More about our weather records

Advertising

Plovdiv weather history for previous 24 hours

 ConditionsComfort  
Time TempWeatherWind HumidityBarometerVisibility
9:30 AM
Mon, Mar 30
52 °FPassing clouds.7 mph58%29.77 "HgN/A
9:00 AM50 °FPassing clouds.7 mph62%29.80 "HgN/A
8:30 AM45 °FPassing clouds.3 mph76%29.80 "HgN/A
8:00 AM43 °FQuite cool.2 mph81%29.80 "HgN/A
7:30 AM45 °FPassing clouds.3 mph81%29.80 "HgN/A
7:00 AM46 °FOvercast.3 mph76%29.77 "HgN/A
6:30 AM46 °FMostly cloudy.3 mph76%29.77 "HgN/A
6:00 AM48 °FOvercast.5 mph71%29.77 "HgN/A
5:30 AM48 °FMostly cloudy.5 mph71%29.77 "HgN/A
5:00 AM48 °FMostly cloudy.5 mph71%29.80 "HgN/A
4:30 AM48 °FPassing clouds.5 mph66%29.80 "HgN/A
4:00 AM48 °FOvercast.9 mph66%29.80 "HgN/A
3:30 AM50 °FMostly cloudy.9 mph62%29.80 "HgN/A
3:00 AM50 °FMostly cloudy.9 mph62%29.80 "HgN/A
2:30 AM50 °FOvercast.9 mph62%29.83 "HgN/A
2:00 AM50 °FOvercast.9 mph62%29.83 "HgN/A
1:30 AM50 °FMostly cloudy.9 mph62%29.83 "HgN/A
1:00 AM50 °FOvercast.13 mph62%29.83 "HgN/A
12:30 AM50 °FOvercast.13 mph62%29.83 "HgN/A
12:00 AM50 °FOvercast.14 mph62%29.83 "HgN/A
11:30 PM
Sun, Mar 29
50 °FSprinkles. Overcast.13 mph67%29.83 "HgN/A
11:00 PM52 °FSprinkles. Overcast.15 mph58%29.83 "HgN/A
10:30 PM52 °FOvercast.14 mph62%29.83 "HgN/A
10:00 PM52 °FOvercast.13 mph62%29.83 "HgN/A
9:30 PM52 °FMostly cloudy.10 mph62%29.80 "HgN/A
9:00 PM52 °FMostly cloudy.13 mph58%29.80 "HgN/A
8:30 PM54 °FMostly cloudy.14 mph54%29.80 "HgN/A
8:00 PM54 °FOvercast.14 mph54%29.77 "HgN/A
7:30 PM55 °FOvercast.15 mph51%29.77 "HgN/A
7:00 PM55 °FOvercast.16 mph51%29.77 "HgN/A
6:30 PM55 °FOvercast.16 mph55%29.77 "HgN/A
6:00 PM55 °FMostly cloudy.18 mph55%29.74 "HgN/A
5:30 PM57 °FMostly cloudy.20 mph48%29.74 "HgN/A
5:00 PM57 °FOvercast.20 mph48%29.74 "HgN/A
4:30 PM59 °FOvercast.20 mph45%29.74 "HgN/A
4:00 PM57 °FMore clouds than sun.21 mph48%29.74 "HgN/A
3:30 PM59 °FPartly sunny.21 mph45%29.74 "HgN/A
3:00 PM57 °FOvercast.21 mph48%29.77 "HgN/A
2:30 PM55 °FOvercast.21 mph51%29.77 "HgN/A
2:00 PM55 °FOvercast.23 mph47%29.77 "HgN/A
1:30 PM55 °FOvercast.23 mph51%29.77 "HgN/A
1:00 PM55 °FOvercast.24 mph51%29.77 "HgN/A
12:30 PM55 °FPartly sunny.22 mph55%29.77 "HgN/A
12:00 PM54 °FMore clouds than sun.21 mph58%29.77 "HgN/A
11:30 AM52 °FOvercast.17 mph62%29.80 "HgN/A
11:00 AM52 °FOvercast.18 mph58%29.80 "HgN/A
10:30 AM52 °FOvercast.21 mph54%29.77 "HgN/A
10:00 AM52 °FCloudy.22 mph54%29.77 "HgN/A
Weather by CustomWeather, © 2015

See weather overviewHow to use our weather pages